Location: downtown San Diego
(32.7310°N, 117.1990°W)
Time: 08:05:31
(UTC-07:00)

Terra - Pass Details

Date: 14 June 2018
Orbit: 701 x 703 km, 98.2° (Epoch: 20 June)

Event Time Altitude Azimuth Distance (km) Brightness Sun altitude
Exits shadow 23:26:30 38° 294° (WNW) 1,065 3.0 -30.6°
Drops below altitude 10° 23:30:01 10° 333° (NNW) 2,171 5.2 -30.9°
Sets 23:32:22 0° 340° (NNW) 3,092 6.3 -31.0°
